TimeCST,TemperatureF,Dew PointF,Humidity,Sea Level PressureIn,VisibilityMPH,Wind Direction,Wind SpeedMPH,Gust SpeedMPH,PrecipitationIn,Events,Conditions,WindDirDegrees,DateUTC
12:15 AM,46.4,32.0,57,30.01,10.0,South,5.8,-,N/A,,Clear,190,2013-01-19 06:15:00
12:35 AM,46.4,32.0,57,30.01,10.0,South,4.6,-,N/A,,Clear,180,2013-01-19 06:35:00
1:15 AM,46.4,32.0,57,30.00,10.0,SSW,8.1,-,N/A,,Clear,200,2013-01-19 07:15:00
1:35 AM,46.4,32.0,57,30.00,10.0,SSW,6.9,-,N/A,,Clear,200,2013-01-19 07:35:00
1:55 AM,46.4,32.0,57,30.01,10.0,SSW,8.1,-,N/A,,Clear,200,2013-01-19 07:55:00
2:35 AM,46.4,32.0,57,30.01,10.0,South,10.4,-,N/A,,Clear,190,2013-01-19 08:35:00
2:55 AM,46.4,32.0,57,30.01,10.0,SSW,11.5,18.4,N/A,,Clear,210,2013-01-19 08:55:00
3:15 AM,46.4,32.0,57,30.00,10.0,SSW,11.5,17.3,N/A,,Clear,200,2013-01-19 09:15:00
3:35 AM,46.4,32.0,57,29.99,10.0,SSW,12.7,19.6,N/A,,Clear,210,2013-01-19 09:35:00
3:55 AM,46.4,32.0,57,29.99,10.0,SSW,17.3,24.2,N/A,,Clear,210,2013-01-19 09:55:00
4:15 AM,46.4,32.0,57,29.98,10.0,SSW,12.7,20.7,N/A,,Clear,210,2013-01-19 10:15:00
4:35 AM,46.4,32.0,57,29.98,10.0,SW,11.5,16.1,N/A,,Clear,220,2013-01-19 10:35:00
4:55 AM,44.6,32.0,61,29.98,10.0,SSW,6.9,-,N/A,,Clear,210,2013-01-19 10:55:00
5:15 AM,44.6,32.0,61,29.97,10.0,South,8.1,-,N/A,,Clear,190,2013-01-19 11:15:00
5:35 AM,44.6,32.0,61,29.97,10.0,SSE,3.5,-,N/A,,Clear,150,2013-01-19 11:35:00
5:55 AM,42.8,32.0,66,29.97,10.0,SSE,4.6,-,N/A,,Clear,160,2013-01-19 11:55:00
7:15 AM,41.0,32.0,70,29.98,10.0,Calm,Calm,-,N/A,,Clear,0,2013-01-19 13:15:00
7:55 AM,42.8,32.0,66,29.98,10.0,Calm,Calm,-,N/A,,Clear,0,2013-01-19 13:55:00
8:15 AM,42.8,32.0,66,29.98,10.0,SSW,9.2,-,N/A,,Clear,210,2013-01-19 14:15:00
8:35 AM,44.6,32.0,61,29.98,10.0,SW,10.4,-,N/A,,Clear,220,2013-01-19 14:35:00
8:55 AM,44.6,32.0,61,29.99,10.0,SW,12.7,-,N/A,,Clear,230,2013-01-19 14:55:00
9:35 AM,44.6,32.0,61,30.01,10.0,SW,12.7,19.6,N/A,,Clear,230,2013-01-19 15:35:00
9:55 AM,46.4,32.0,57,30.00,10.0,SW,15.0,19.6,N/A,,Clear,220,2013-01-19 15:55:00
10:15 AM,46.4,32.0,57,30.01,10.0,SW,12.7,-,N/A,,Clear,230,2013-01-19 16:15:00
10:35 AM,48.2,32.0,54,30.02,10.0,WSW,13.8,-,N/A,,Clear,240,2013-01-19 16:35:00
11:15 AM,50.0,32.0,50,30.02,10.0,WSW,8.1,-,N/A,,Clear,250,2013-01-19 17:15:00
12:15 PM,51.8,32.0,47,30.01,10.0,West,9.2,-,N/A,,Clear,260,2013-01-19 18:15:00
12:55 PM,55.4,30.2,38,29.99,10.0,West,10.4,-,N/A,,Clear,280,2013-01-19 18:55:00
1:15 PM,55.4,30.2,38,29.99,10.0,West,9.2,17.3,N/A,,Clear,260,2013-01-19 19:15:00
1:55 PM,59.0,28.4,31,29.98,10.0,West,12.7,17.3,N/A,,Clear,270,2013-01-19 19:55:00
2:35 PM,59.0,30.2,34,29.98,10.0,West,11.5,-,N/A,,Clear,270,2013-01-19 20:35:00
2:55 PM,59.0,28.4,31,29.99,10.0,West,11.5,-,N/A,,Clear,280,2013-01-19 20:55:00
3:15 PM,60.8,28.4,29,29.99,10.0,West,6.9,11.5,N/A,,Clear,270,2013-01-19 21:15:00
3:35 PM,60.8,28.4,29,29.99,10.0,West,11.5,-,N/A,,Clear,270,2013-01-19 21:35:00
3:55 PM,60.8,28.4,29,30.00,10.0,West,9.2,-,N/A,,Clear,270,2013-01-19 21:55:00
4:15 PM,60.8,28.4,29,30.01,10.0,West,6.9,-,N/A,,Clear,270,2013-01-19 22:15:00
4:35 PM,60.8,28.4,29,30.02,10.0,West,8.1,-,N/A,,Clear,270,2013-01-19 22:35:00
4:55 PM,59.0,28.4,31,30.03,10.0,WNW,10.4,-,N/A,,Clear,300,2013-01-19 22:55:00
5:15 PM,59.0,26.6,29,30.04,10.0,WNW,9.2,-,N/A,,Clear,300,2013-01-19 23:15:00
5:35 PM,55.4,28.4,36,30.05,10.0,WNW,12.7,18.4,N/A,,Clear,300,2013-01-19 23:35:00
5:55 PM,53.6,28.4,38,30.07,10.0,NW,11.5,18.4,N/A,,Clear,310,2013-01-19 23:55:00
6:15 PM,53.6,28.4,38,30.09,10.0,NW,9.2,-,N/A,,Clear,310,2013-01-20 00:15:00
6:35 PM,51.8,28.4,41,30.10,10.0,WNW,8.1,-,N/A,,Clear,300,2013-01-20 00:35:00
6:55 PM,50.0,28.4,43,30.12,10.0,NW,9.2,-,N/A,,Clear,320,2013-01-20 00:55:00
7:15 PM,50.0,28.4,43,30.12,10.0,NW,6.9,-,N/A,,Clear,320,2013-01-20 01:15:00
7:35 PM,50.0,28.4,43,30.14,10.0,NNW,5.8,-,N/A,,Clear,330,2013-01-20 01:35:00
8:15 PM,46.4,30.2,53,30.16,10.0,NW,9.2,-,N/A,,Clear,320,2013-01-20 02:15:00
8:35 PM,46.4,30.2,53,30.18,10.0,NNW,8.1,-,N/A,,Clear,330,2013-01-20 02:35:00
8:55 PM,46.4,30.2,53,30.19,10.0,NW,4.6,-,N/A,,Clear,310,2013-01-20 02:55:00
9:15 PM,44.6,30.2,57,30.19,10.0,NNW,9.2,-,N/A,,Clear,330,2013-01-20 03:15:00
9:35 PM,44.6,30.2,57,30.19,10.0,NNW,9.2,-,N/A,,Clear,330,2013-01-20 03:35:00
9:55 PM,44.6,30.2,57,30.21,10.0,NNW,10.4,-,N/A,,Clear,330,2013-01-20 03:55:00
10:15 PM,44.6,30.2,57,30.21,10.0,NW,9.2,-,N/A,,Clear,320,2013-01-20 04:15:00
10:35 PM,44.6,30.2,57,30.22,10.0,NW,9.2,-,N/A,,Clear,320,2013-01-20 04:35:00
10:55 PM,42.8,30.2,61,30.23,10.0,NW,8.1,-,N/A,,Clear,320,2013-01-20 04:55:00
11:15 PM,42.8,30.2,61,30.24,10.0,NW,8.1,-,N/A,,Clear,320,2013-01-20 05:15:00
11:35 PM,41.0,30.2,65,30.25,10.0,NNW,9.2,-,N/A,,Clear,340,2013-01-20 05:35:00
11:55 PM,41.0,30.2,65,30.25,10.0,NNW,8.1,-,N/A,,Clear,330,2013-01-20 05:55:00